[[{"header":{"parameterUnit":"m.s-1","parameterCategory":1,"la1":30.2991,"la2":30.254,"lo1":-89.0895,"lo2":-89.0444,"dx":0.0017,"dy":0.0017,"nx":28,"ny":28,"refTime":"2022-11-12T09:00:00:Z","depth":0,"parameterNumber":2,"parameterNumberName":"U-component_of_WINDS"},"data":[0,0,0,0,0,0,0,0,0,0,0,0,0,0,0,0,0,0,0,0,0,0,0,0,0,0,0,0,0,0,0,0,0,0,0,0,0,0,0,0,0,0,0,0,0,0,0,0,0,0,0,0,0,0,0,0,0,0,1.6965,1.6966,0,1.7057,1.7058,1.706,1.7066,1.7065,1.7064,1.7063,1.7157,1.716,1.7164,0,0,0,0,0,0,0,0,0,0,0,0,0,1.6793,1.6796,1.6965,1.6966,1.6967,1.7057,1.7059,1.706,1.7066,1.7065,1.7064,1.7062,1.7156,1.716,1.7164,0,0,0,0,0,0,0,0,0,0,0,0,0,1.6875,1.6797,1.6965,1.6981,1.6984,1.7057,1.7059,1.706,1.7066,1.7065,1.7063,1.7062,1.7154,1.7159,1.7164,1.7227,0,0,1.718,1.7183,0,0,0,0,0,0,0,0,1.687,1.6881,1.6978,1.698,1.6983,1.7049,1.7032,1.7116,1.7067,1.7035,1.7063,1.7061,1.7122,1.713,1.715,1.7232,1.7236,1.7181,1.7184,1.7186,1.7188,0,0,0,0,0,0,0,1.6864,1.6877,1.7002,1.6979,1.6983,1.6984,1.6994,1.7048,1.7086,1.7038,1.7038,1.7049,1.7123,1.7145,1.7153,1.7237,1.7181,1.7185,1.7188,1.719,1.7372,1.7374,0,0,0,0,0,0,1.6856,1.6872,1.6999,1.7004,1.6922,1.6988,1.6999,1.7029,1.7085,1.7093,1.705,1.7049,1.7137,1.7147,1.7156,1.7231,1.7186,1.7191,1.7194,1.7371,1.7373,1.7375,0,0,0,0,0,0,1.6852,1.6867,1.6995,1.6939,1.6955,1.6993,1.7026,1.7032,1.7054,1.7095,1.7102,1.7066,1.7136,1.7149,1.7209,1.7235,1.7193,1.7198,1.7369,1.7371,1.7374,1.7384,0,0,0,0,0,0,1.6847,1.6865,1.689,1.6939,1.6958,1.7047,1.7028,1.7035,1.7063,1.7062,1.7112,1.7118,1.7136,1.7201,1.7214,1.7241,1.7202,1.7366,1.737,1.7373,1.7381,1.7386,1.739,0,0,0,0,0,1.6841,1.689,1.6891,1.6907,1.699,1.7048,1.7059,1.7079,1.7065,1.709,1.7116,1.7117,1.723,1.7207,1.7222,1.7251,1.7365,1.7369,1.7373,1.7379,1.7385,1.739,0,0,0,0,0,0,1.6843,1.6896,1.6899,1.6965,1.7002,1.7049,1.7081,1.7085,1.7127,1.7124,1.7147,1.7158,1.7217,1.724,1.7214,1.7314,1.7296,1.7303,1.7296,1.7302,1.7307,1.7299,1.7206,0,0,0,0,0,1.6851,1.6895,1.6939,1.6993,1.7012,1.7043,1.707,1.7081,1.7121,1.7136,1.7167,1.7205,1.7248,1.7277,1.732,1.7385,1.7395,1.7412,1.7417,1.742,1.7426,1.746,1.7467,1.7387,1.7387,1.7387,0,0,1.6868,1.6903,1.6929,1.6995,1.7025,1.7068,1.7056,1.7104,1.7136,1.7143,1.7201,1.7225,1.7269,1.7331,1.736,1.7353,1.745,1.7425,1.7428,1.7431,1.7464,1.7472,1.7478,1.739,1.7389,1.7389,0,0,1.6922,1.6953,1.7001,1.7031,1.7076,1.7097,1.7108,1.7155,1.7171,1.723,1.7235,1.7274,1.735,1.738,1.7405,1.7469,1.7471,1.7483,1.7506,1.7539,1.7546,1.7551,1.7572,1.7579,1.7488,1.7488,1.7488,0,1.6937,1.7004,1.7025,1.7071,1.7099,1.7108,1.7155,1.7184,1.7241,1.7259,1.725,1.7344,1.7374,1.7442,1.7458,1.7479,1.7491,1.7476,1.7543,1.7549,1.7555,1.7574,1.7582,1.7489,1.7489,1.7489,1.7489,0,1.7019,1.7065,1.7098,1.7153,1.7184,1.7231,1.7258,1.7288,1.7297,1.7318,1.7377,1.7413,1.7463,1.748,1.749,1.755,1.7543,1.7539,1.7521,1.7563,1.7581,1.7589,1.749,1.749,1.749,1.7489,0,0,1.7076,1.7141,1.7152,1.7176,1.7227,1.7262,1.7309,1.7357,1.7381,1.7421,1.7459,1.7523,1.7518,1.7546,1.756,1.7589,1.7634,1.758,1.7581,1.7587,1.7699,1.7701,1.771,1.7636,1.7638,1.7639,1.7695,0,1.7133,1.7217,1.7236,1.7307,1.7349,1.7358,1.7398,1.7433,1.7454,1.7492,1.7515,1.7559,1.7551,1.7567,1.7597,1.7622,1.7656,1.7619,1.7671,1.7672,1.7657,1.772,1.7722,1.7773,1.7703,1.7704,1.7705,0,1.7211,1.7251,1.7326,1.7369,1.7388,1.7424,1.7468,1.7505,1.7545,1.7558,1.7589,1.7599,1.7647,1.7628,1.7693,1.7667,1.769,1.7705,1.7708,1.7712,1.769,1.7723,1.779,1.7797,1.7717,1.7716,1.7715,0,1.7241,1.7315,1.7368,1.7389,1.7442,1.7466,1.749,1.7527,1.7555,1.7594,1.7611,1.7656,1.768,1.7714,1.7735,1.772,1.7798,1.7781,1.7808,1.7808,1.7823,1.7821,1.7892,1.7841,1.7841,1.7841,1.7841,0,1.7302,1.7347,1.7383,1.7415,1.7466,1.7488,1.7537,1.756,1.7593,1.763,1.7641,1.7675,1.7702,1.774,1.7757,1.7807,1.7819,1.7829,1.7833,1.7827,1.7825,1.7841,1.7837,1.7843,1.7843,1.7842,1.7842,0,1.7344,1.737,1.7429,1.7474,1.7486,1.7521,1.7559,1.7591,1.7612,1.7658,1.767,1.7703,1.7748,1.7773,1.783,1.7841,1.7896,1.7899,1.7882,1.7884,1.7909,1.7905,1.799,1.8002,1.7945,1.7945,1.7946,0,1.738,1.7415,1.7463,1.7488,1.7512,1.7553,1.758,1.7603,1.7631,1.7678,1.7703,1.7749,1.7786,1.7857,1.7886,1.7928,1.7931,1.7958,1.7938,1.793,1.7929,1.7926,1.7928,1.7961,1.7961,1.7962,1.7962,0,1.744,1.7451,1.749,1.7534,1.7566,1.7602,1.7637,1.7657,1.7685,1.7716,1.7762,1.7791,1.7848,1.7892,1.7937,1.796,1.7965,1.7969,1.7977,1.797,1.7958,1.7963,1.789,1.7966,1.7966,1.7965,1.7965,1.7965,1.7479,1.7509,1.7547,1.759,1.7619,1.7651,1.7683,1.7707,1.7746,1.7794,1.7805,1.7853,1.789,1.7951,1.7975,1.8012,1.8007,1.8019,1.8022,1.8024,1.8024,1.7954,1.8021,1.8021,1.802,1.802,1.802,0,1.7537,1.7562,1.7602,1.765,1.7683,1.7686,1.7725,1.7752,1.7794,1.7828,1.7864,1.7916,1.7959,1.7991,1.8034,1.8057,1.8061,1.8068,1.8065,1.807,1.8027,1.8015,1.8064,1.8064,1.8064,1.8064,1.8064,1.8064,1.7572,1.7622,1.7638,1.7702,1.7727,1.7774,1.7795,1.7824,1.7852,1.7908,1.7944,1.7964,1.7997,1.8043,1.8082,1.809,1.8105,1.8111,1.8119,1.8078,1.8073,1.8069,1.8057,1.8114,1.8115,1.8159,1.8159,1.8159]},{"header":{"parameterUnit":"m.s-1","parameterCategory":1,"la1":30.2991,"la2":30.254,"lo1":-89.0895,"lo2":-89.0444,"dx":0.0017,"dy":0.0017,"nx":28,"ny":28,"refTime":"2022-11-12T09:00:00:Z","depth":0,"parameterNumber":3,"parameterNumberName":"V-component_of_WINDS"},"data":[0,0,0,0,0,0,0,0,0,0,0,0,0,0,0,0,0,0,0,0,0,0,0,0,0,0,0,0,0,0,0,0,0,0,0,0,0,0,0,0,0,0,0,0,0,0,0,0,0,0,0,0,0,0,0,0,0,0,2.7584,2.7585,0,2.7662,2.7663,2.7664,2.7653,2.7652,2.765,2.7649,2.7726,2.773,2.7733,0,0,0,0,0,0,0,0,0,0,0,0,0,2.7421,2.7424,2.7584,2.7585,2.7586,2.7662,2.7663,2.7664,2.7653,2.7652,2.765,2.7649,2.7725,2.7729,2.7733,0,0,0,0,0,0,0,0,0,0,0,0,0,2.7495,2.7425,2.7584,2.759,2.7591,2.7662,2.7663,2.7665,2.7653,2.7652,2.765,2.7648,2.7724,2.7729,2.7734,2.7803,0,0,2.7749,2.7751,0,0,0,0,0,0,0,0,2.7491,2.7501,2.7588,2.7589,2.7591,2.7646,2.7634,2.7711,2.7654,2.763,2.7649,2.7647,2.7701,2.7708,2.7727,2.7807,2.781,2.7749,2.7752,2.7754,2.7756,0,0,0,0,0,0,0,2.7485,2.7497,2.7615,2.7589,2.7591,2.7587,2.7595,2.7649,2.7675,2.7632,2.7631,2.7641,2.7701,2.7722,2.7728,2.7811,2.7749,2.7753,2.7756,2.7758,2.795,2.7952,0,0,0,0,0,0,2.7479,2.7493,2.7612,2.7617,2.7535,2.7592,2.7601,2.763,2.7675,2.768,2.7642,2.764,2.7714,2.7723,2.7731,2.7814,2.7754,2.7759,2.7762,2.7948,2.7951,2.7953,0,0,0,0,0,0,2.7476,2.749,2.7609,2.7555,2.757,2.7597,2.7629,2.7633,2.7653,2.7683,2.7687,2.7658,2.7713,2.7724,2.7785,2.7816,2.7761,2.7765,2.7945,2.7949,2.7952,2.7981,0,0,0,0,0,0,2.7471,2.7489,2.7516,2.7556,2.7573,2.7663,2.7631,2.7636,2.7662,2.766,2.7699,2.7704,2.7713,2.7778,2.779,2.7822,2.7769,2.7943,2.7947,2.7951,2.7977,2.7985,2.7991,0,0,0,0,0,2.7465,2.7521,2.7518,2.7532,2.7608,2.7665,2.7675,2.7685,2.7665,2.7692,2.7711,2.7702,2.7811,2.7784,2.7798,2.7832,2.7941,2.7946,2.795,2.7974,2.7983,2.7991,0,0,0,0,0,0,2.7484,2.7527,2.7523,2.7594,2.7626,2.7663,2.7698,2.7694,2.7732,2.7728,2.7738,2.7747,2.7808,2.7826,2.7795,2.79,2.7873,2.7881,2.7886,2.7895,2.7902,2.7896,2.7773,0,0,0,0,0,2.7497,2.7541,2.7575,2.7634,2.765,2.7671,2.7696,2.7701,2.7734,2.7748,2.7771,2.7803,2.7844,2.7871,2.791,2.798,2.7987,2.801,2.8017,2.8022,2.8029,2.8065,2.8075,2.7969,2.7969,2.7969,0,0,2.7523,2.7551,2.7578,2.7638,2.7664,2.7707,2.7683,2.773,2.7762,2.7755,2.7813,2.7832,2.7867,2.7933,2.7962,2.7949,2.806,2.8029,2.8033,2.8036,2.8071,2.8081,2.809,2.7972,2.7971,2.7971,0,0,2.7592,2.7619,2.767,2.7696,2.7735,2.7749,2.7761,2.7799,2.7811,2.787,2.7865,2.7902,2.7974,2.7999,2.8021,2.8099,2.8092,2.8112,2.8148,2.8183,2.8191,2.8199,2.8225,2.8234,2.8118,2.8118,2.8118,0,2.7619,2.7686,2.7697,2.7745,2.7771,2.7766,2.7817,2.7842,2.7891,2.7909,2.7894,2.7982,2.8006,2.8076,2.8095,2.8114,2.8127,2.8107,2.8189,2.8197,2.8204,2.8229,2.8239,2.812,2.812,2.812,2.8119,0,2.7716,2.7763,2.7799,2.7848,2.7878,2.7927,2.7944,2.7973,2.7975,2.7989,2.8049,2.8078,2.8122,2.8139,2.8142,2.821,2.82,2.8187,2.816,2.8216,2.824,2.825,2.8123,2.8122,2.8122,2.8121,0,0,2.78,2.7854,2.7867,2.7888,2.793,2.7966,2.8014,2.8058,2.8082,2.8116,2.8156,2.8216,2.8204,2.8229,2.8234,2.8266,2.8323,2.8249,2.825,2.826,2.8398,2.8406,2.8417,2.832,2.8321,2.8323,2.8394,0,2.7872,2.7959,2.797,2.8046,2.8088,2.8084,2.8126,2.8155,2.817,2.8207,2.8223,2.8265,2.8247,2.8261,2.8292,2.831,2.8351,2.8305,2.8355,2.8357,2.8345,2.843,2.844,2.8505,2.8404,2.8405,2.8407,0,2.7969,2.8006,2.8087,2.8122,2.814,2.8178,2.8218,2.8254,2.8287,2.8295,2.8323,2.8324,2.8372,2.8343,2.8409,2.8378,2.8399,2.841,2.8413,2.8417,2.8384,2.8435,2.8527,2.8536,2.8422,2.842,2.8419,0,2.8019,2.809,2.8147,2.8165,2.8209,2.8235,2.8254,2.8285,2.8311,2.8346,2.8362,2.8402,2.8424,2.8455,2.8465,2.8444,2.853,2.8503,2.8537,2.8537,2.8554,2.8553,2.865,2.857,2.857,2.857,2.857,0,2.8098,2.8148,2.817,2.8205,2.8259,2.827,2.8324,2.8341,2.8369,2.8406,2.8405,2.844,2.8453,2.8489,2.8498,2.855,2.856,2.8567,2.8568,2.8566,2.8565,2.8579,2.8575,2.8572,2.8572,2.8571,2.8571,0,2.8164,2.8182,2.8243,2.8279,2.8289,2.8327,2.8357,2.839,2.8404,2.8451,2.8463,2.8485,2.8527,2.8542,2.8593,2.8599,2.8659,2.8657,2.8648,2.8648,2.8681,2.8677,2.8789,2.8804,2.8716,2.8717,2.8718,0,2.8213,2.8251,2.8291,2.8316,2.8336,2.8377,2.8403,2.8415,2.8442,2.8481,2.8509,2.8552,2.8586,2.8654,2.8674,2.8713,2.8711,2.8747,2.8717,2.8713,2.871,2.8707,2.871,2.8753,2.8754,2.8754,2.8755,0,2.8297,2.8304,2.8342,2.8383,2.8414,2.8447,2.8478,2.8499,2.8515,2.8545,2.8589,2.8616,2.8668,2.871,2.8749,2.8767,2.8763,2.8765,2.8774,2.8772,2.8765,2.8768,2.8663,2.8762,2.8761,2.8761,2.876,2.876,2.8355,2.8388,2.8421,2.8463,2.8488,2.8517,2.8549,2.8568,2.8605,2.8649,2.8654,2.8701,2.8731,2.8784,2.8804,2.8839,2.8829,2.8844,2.8847,2.885,2.8852,2.876,2.8847,2.8847,2.8847,2.8846,2.8846,0,2.8438,2.8459,2.8497,2.8542,2.8574,2.8569,2.8603,2.8631,2.8672,2.8702,2.8736,2.8785,2.8825,2.8848,2.8887,2.8912,2.8911,2.8921,2.8919,2.8923,2.886,2.8847,2.8921,2.8921,2.8921,2.8921,2.8921,2.8921,2.8484,2.8539,2.8549,2.8616,2.8636,2.8683,2.8703,2.8729,2.8752,2.8808,2.8842,2.8857,2.8883,2.8924,2.896,2.8965,2.8979,2.8991,2.8995,2.8935,2.8928,2.892,2.8908,2.8994,2.8994,2.9055,2.9056,2.9056]}]]